Location: Lombard
(41.8800°N, 88.0080°W)
Time: 23:16:14
(UTC-05:00)

UWE-3 - Visible Passes

Search period start: 07 June 2023 00:00
Search period end: 17 June 2023 00:00
Orbit: 577 x 669 km, 97.7° (Epoch: 07 June)

Date Brightness Start Highest point End Pass type
(mag) Time Alt. Az. Time Alt. Az. Time Alt. Az.
07 Jun ? 02:50:31 10° NE 02:53:59 22° E 02:57:24 10° SE visible
07 Jun ? 04:26:11 10° N 04:30:14 36° WNW 04:34:21 10° SW visible
08 Jun ? 03:08:13 10° NNE 03:12:17 34° E 03:15:48 13° SSE visible
09 Jun ? 03:26:08 10° NNE 03:30:31 53° E 03:34:11 15° S visible
10 Jun ? 03:44:12 10° NNE 03:48:42 83° ESE 03:52:34 14° S visible
11 Jun ? 02:28:15 10° ENE 02:30:17 13° E 02:32:20 10° ESE visible
11 Jun ? 04:02:23 10° N 04:06:50 63° WNW 04:10:57 12° SSW visible
12 Jun ? 02:45:17 10° NE 02:48:36 20° E 02:51:56 10° SE visible
12 Jun ? 04:20:41 10° N 04:24:55 40° WNW 04:29:10 10° SW visible
13 Jun ? 03:02:52 10° NE 03:06:52 30° E 03:10:26 12° SSE visible
13 Jun ? 04:39:08 10° NNW 04:42:56 27° WNW 04:46:45 10° SW visible
14 Jun ? 03:20:42 10° NNE 03:25:04 47° E 03:28:46 14° S visible
15 Jun ? 03:38:41 10° NNE 03:43:14 74° E 03:47:05 15° S visible
16 Jun ? 02:23:15 10° ENE 02:24:43 11° E 02:26:11 10° ESE visible
16 Jun ? 03:56:48 10° N 04:01:20 72° WNW 04:05:25 13° SSW visible
